Weather History for Del Rio, TX

Change the Weather History Date:

Monday, August 19, 2013

  Actual Average Record
Temperature  
Mean Temperature 88 °F 86 °F  
Max Temperature 98 °F 97 °F 108 °F (1909)
Min Temperature 77 °F 75 °F 66 °F (1906)
Degree Days  
Heating Degree Days 0 0  
Month to date heating degree days 0 0  
Since 1 June heating degree days 0 0  
Since 1 July heating degree days 0 0  
Cooling Degree Days 23 21  
Month to date cooling degree days 488 416  
Year to date cooling degree days 2680 2394  
Since 1 June cooling degree days 1774 1635  
Growing Degree Days 38 (Base 50)    
Moisture  
Dew Point 57 °F    
Average Humidity 40    
Maximum Humidity 54    
Minimum Humidity 25    
Precipitation  
Precipitation 0.00 in 0.08 in 1.40 in (1916)
Month to date precipitation T 1.14  
Year to date precipitation 7.75 12.47  
Sea Level Pressure  
Sea Level Pressure 29.92 in    
Wind  
Wind Speed 9 mph (ESE)    
Max Wind Speed 20 mph    
Max Gust Speed 24 mph    
Visibility 10 miles    
Events      
T = Trace of Precipitation, MM = Missing Value Source: NWS Daily Summary

Daily Weather History Graph

Daily Weather History Graph

Search for Another Location

Airport:

Trip Planner

Search our weather history database for the weather conditions in past years. The results will help you decide how hot, cold, wet, or windy it might be!

Date:

Astronomy

Aug. 19, 2013 Rise Set
Actual Time 7:14 AM CDT 8:19 PM CDT
Civil Twilight 6:49 AM CDT 8:44 PM CDT
Nautical Twilight 6:20 AM CDT 9:13 PM CDT
Astronomical Twilight 5:50 AM CDT 9:43 PM CDT
Moon 7:12 PM CDT (8/19) 5:38 AM CDT (8/19)
Length of Visible Light 13h 54m
Length of Day
13h 05m
Waxing Gibbous, 97% of the Moon is Illuminated
Aug 19
Waxing Gibbous
Aug 20
Full
Aug 28
Last Quarter
Sep 5
New
Sep 12
First Quarter

Hourly Weather History & Observations

Time (CDT) Temp. Heat Index Dew Point Humidity Pressure Visibility Wind Dir Wind Speed Gust Speed Precip Events Conditions
12:53 AM 86.0 °F 84.9 °F 57.0 °F 37% 29.93 in 10.0 mi ESE 5.8 mph - N/A   Clear
1:53 AM 84.0 °F 83.3 °F 57.0 °F 40% 29.91 in 10.0 mi East 5.8 mph - N/A   Clear
2:53 AM 82.0 °F 81.7 °F 57.0 °F 42% 29.92 in 10.0 mi Calm Calm - N/A   Clear
3:53 AM 80.1 °F 80.4 °F 57.0 °F 45% 29.91 in 10.0 mi East 5.8 mph - N/A   Clear
4:53 AM 79.0 °F - 57.0 °F 47% 29.91 in 10.0 mi East 9.2 mph - N/A   Clear
5:53 AM 78.1 °F - 57.0 °F 48% 29.92 in 10.0 mi East 11.5 mph - N/A   Clear
6:53 AM 77.0 °F - 57.9 °F 52% 29.93 in 10.0 mi East 9.2 mph - N/A   Clear
7:53 AM 77.0 °F - 59.0 °F 54% 29.95 in 10.0 mi East 10.4 mph - N/A   Clear
8:53 AM 79.0 °F - 61.0 °F 54% 29.98 in 7.0 mi ESE 11.5 mph 17.3 mph N/A   Partly Cloudy
9:53 AM 82.9 °F 83.7 °F 62.1 °F 49% 29.99 in 10.0 mi SE 11.5 mph - N/A   Clear
10:53 AM 87.1 °F 86.7 °F 60.1 °F 40% 30.00 in 10.0 mi SE 13.8 mph 19.6 mph N/A   Clear
11:53 AM 90.0 °F 88.6 °F 57.0 °F 33% 29.99 in 10.0 mi SSE 15.0 mph 20.7 mph N/A   Clear
12:53 PM 93.0 °F 91.7 °F 57.0 °F 30% 29.97 in 10.0 mi SE 16.1 mph 24.2 mph N/A   Clear
1:53 PM 95.0 °F 93.7 °F 57.0 °F 28% 29.95 in 10.0 mi SSE 15.0 mph 19.6 mph N/A   Clear
2:53 PM 96.1 °F 94.8 °F 57.0 °F 27% 29.93 in 10.0 mi SE 9.2 mph 19.6 mph N/A   Clear
3:53 PM 97.0 °F 95.3 °F 55.9 °F 25% 29.90 in 10.0 mi SSE 9.2 mph - N/A   Clear
4:53 PM 97.0 °F 95.0 °F 55.0 °F 24% 29.88 in 10.0 mi SE 8.1 mph - N/A   Clear
5:53 PM 97.0 °F 95.0 °F 55.0 °F 24% 29.86 in 10.0 mi SE 5.8 mph - N/A   Partly Cloudy
6:53 PM 96.1 °F 94.5 °F 55.9 °F 26% 29.86 in 10.0 mi ESE 6.9 mph 16.1 mph N/A   Clear
7:53 PM 93.9 °F 92.2 °F 55.9 °F 28% 29.86 in 10.0 mi SSE 10.4 mph - N/A   Clear
8:53 PM 91.0 °F 89.2 °F 55.9 °F 30% 29.86 in 10.0 mi SE 6.9 mph - N/A   Clear
9:53 PM 89.1 °F 87.7 °F 57.0 °F 34% 29.87 in 10.0 mi SE 5.8 mph - N/A   Clear
10:53 PM 87.1 °F 85.9 °F 57.0 °F 36% 29.88 in 10.0 mi ESE 6.9 mph - N/A   Clear
11:53 PM 84.9 °F 83.9 °F 57.0 °F 38% 29.89 in 10.0 mi ESE 5.8 mph - N/A   Clear